Terminal Aerodrome Forecast
Issued by NWS

Home | Current Version | Previous Version | Graphics & Text | Print | Product List | Glossary On
Versions: 1 2 3 4 5 6 7 8 9 10 11 12 13 14 15 16 17 18 19 20 21 22 23 24 25 26 27 28 29 30 31 32 33
000
FTUS43 KLOT 281130
TAFMDW
TAF
KMDW 281130Z 2812/2912 12007KT P6SM SCT250
     FM281600 11010KT P6SM SCT050 BKN250
     FM290100 14006KT P6SM SCT120 BKN250
     FM290700 19006KT P6SM BKN050 PROB30 2908/2912 3SM TSRA
      OVC050CB=

USA.gov is the U.S. government's official web portal to all federal, state and local government web resources and services.